Starlink 32519

operational
NORAD ID: 62317 Int'l Des: 2024-239 Owner: SPXS Country: US Constellation: starlink
LEOCIRCULAR

Über Starlink 32519

Beschreibung wird geladen...

Live-Position

3D-Globus wird geladen...

Nächste Überflüge

Höhenverlauf

Altitude vs Time

uPlot chart will show altitude changes over time

Zweizeiliger Elementsatz

1 62317U 24239S 25307.66671731 .00018996 00000-0 65192-3 0 9992
2 62317 53.1626 46.1878 0001310 82.7869 277.3281 15.30196231 50278
Epoch: 3. Nov. 2025 • Age: 15 hours

Aktueller Status

Höhe 493.2 km
Geschwindigkeit 7.62 km/s
Subsatellitenpunkt -49.85°S, 133.36°E
Startdatum 13. Dez. 2024
Alter 0.8 years
Typ internet

Technische Details

Klassifizierung Payload
Masse 730.00 kg
Trockenmasse 700.00 kg
Gesamtmasse 730.00 kg
Länge 0.30 m
Durchmesser 4.10 m
Spannweite 29.00 m
Form Box + pan
Hersteller SPXS
Bus-Typ Starlink V2M
Phasenstatus In Orbit
Besitzer/Staat SPXS/US

Große Konstellationen

Loading constellations...